Regional Weather Roundup
Issued by NWS

Home | Current Version | Previous Version | Graphics & Text | Print | Product List | Glossary On
Versions: 1 2 3 4 5 6 7 8 9 10 11 12 13 14 15 16 17 18 19 20 21 22 23 24 25 26 27 28 29 30 31 32 33 34 35 36 37 38 39 40 41 42 43 44 45 46 47 48 49
000
ASUS45 KBOI 260110
RWRID
WEATHER ROUNDUP FOR IDAHO
NATIONAL WEATHER SERVICE BOISE ID
600 PM MST SUN JAN 25 2015

NOTE: "FAIR" INDICATES FEW OR NO CLOUDS BELOW 12000 FEET
WITH NO SIGNIFICANT WEATHER AND/OR OBSTRUCTIONS TO VISIBILITY

IDZ012-014-260200-
SOUTHWEST IDAHO


CITY           SKY/WX    TMP DP  RH WIND       PRES   REMARKS
BOISE          CLEAR     38  33  82 W5        30.40S WCI  34
CALDWELL       CLEAR     37  28  70 S6        30.42F WCI  33
MOUNTAIN HOME  PTCLDY    37  34  89 W3        30.39F
$$

IDZ016-017-260200-
SOUTHCENTRAL IDAHO


CITY           SKY/WX    TMP DP  RH WIND       PRES   REMARKS
BURLEY         PTCLDY    40  33  76 NE10      30.38S WCI  33
JEROME         MOCLDY    35  31  85 NE15      30.39S WCI  25
TWIN FALLS     PTCLDY    41  35  79 NE5       30.38S
$$

IDZ019>023-260200-
SOUTHEAST IDAHO


CITY           SKY/WX    TMP DP  RH WIND       PRES   REMARKS
IDAHO FALLS    CLOUDY    31  30  96 N8        30.45S FOG     WCI  23
POCATELLO      PTCLDY    31  30  96 NE6       30.44R WCI  25
REXBURG        CLOUDY    31  31 100 NE5       30.44S WCI  26
$$

IDZ006-010-011-018-031-032-260200-
CENTRAL IDAHO MOUNTAINS


CITY           SKY/WX    TMP DP  RH WIND       PRES   REMARKS
MCCALL         PTCLDY    35  31  85 CALM      30.35S
HAILEY         MOCLDY    28  28 100 CALM      30.42R
STANLEY          N/A     35  28  75 SE3       30.41S
SALMON         MOCLDY    28  21  74 SE3       30.38R
CHALLIS        MOCLDY    35  30  82 CALM      30.37R
$$

IDZ002-004-006-007-026-260200-
NORTHERN IDAHO


CITY           SKY/WX    TMP DP  RH WIND       PRES   REMARKS
LEWISTON       PTCLDY    53  40  61 SE14      30.19S
LOWELL           N/A     39  37  92 N6        30.32R WCI  35
COEUR D`ALENE  PTCLDY    43  39  87 N14       30.19R
MULLAN PASS    PTCLDY    41  28  60 S6        30.25S
$$


USA.gov is the U.S. government's official web portal to all federal, state and local government web resources and services.